EHI
24 23 24 29 30 25 18 14 14 14 14 14 12 9 6 4 4 4 6 6 8 10 9 6 5 6 6 6 5 5 3 2 1 0 0 0 0 0 0 0 0 0 0
25 24 28 35 38 34 26 21 21 21 19 17 14 11 9 7 5 5 6 7 9 11 10 6 5 5 5 5 5 4 3 1 0 0 0 0 0 0 0 0 0 0 0
25 27 32 39 44 45 38 31 29 30 27 24 22 19 16 13 9 7 7 8 11 12 10 8 6 4 4 4 4 4 3 2 1 0 0 0 0 0 0 0 0 0 0
23 27 33 38 46 51 47 38 33 33 32 31 30 28 22 17 12 10 8 8 9 11 9 8 6 4 3 3 3 3 3 2 1 0 0 0 0 0 0 0 0 0 0
21 25 32 38 45 52 51 44 37 34 34 34 35 32 25 17 13 11 9 7 6 7 7 6 5 4 3 3 3 3 3 2 1 0 0 0 0 0 0 0 0 0 0
23 26 31 38 46 52 54 52 48 43 39 37 36 34 27 19 14 13 10 7 4 4 6 5 4 3 3 3 3 3 3 2 1 0 0 0 0 0 0 0 0 0 0
28 31 35 40 48 52 56 58 58 55 48 42 38 35 30 24 18 15 13 9 6 5 5 6 5 4 3 3 3 3 3 2 1 0 0 0 0 0 0 0 0 0 0
32 36 41 46 49 51 54 58 61 59 52 44 40 36 33 29 24 21 17 12 9 6 5 5 5 4 3 4 3 3 3 2 1 0 0 0 0 0 0 0 0 0 0
36 39 44 47 48 46 49 56 59 55 48 42 40 38 35 32 28 24 20 14 9 6 5 5 5 4 5 5 4 3 3 3 1 0 0 0 0 0 0 0 0 0 0
41 42 45 46 44 43 46 52 53 48 41 39 38 37 35 32 28 23 19 14 9 7 6 5 4 5 6 6 5 3 3 3 2 1 0 0 0 0 0 0 0 0 0
43 44 45 45 44 43 44 47 46 42 38 37 37 36 33 30 26 21 17 13 10 9 8 5 4 5 6 7 6 4 3 3 2 1 0 0 0 0 0 0 0 0 0
43 44 44 46 46 44 43 42 40 39 37 35 35 35 31 27 24 21 17 14 12 10 9 7 6 6 7 8 8 6 4 3 2 1 0 0 0 0 0 0 0 0 0
42 42 42 44 46 44 39 37 36 37 36 35 34 32 29 24 22 21 18 14 11 10 10 9 8 7 8 8 7 6 3 2 2 1 0 0 0 0 0 0 0 0 0
37 37 37 41 44 41 35 31 33 35 37 37 34 30 26 22 21 19 16 13 11 10 10 11 9 7 7 6 6 5 3 1 1 0 0 0 0 0 0 0 0 0 0
30 32 35 39 42 40 34 31 32 36 40 42 37 30 24 21 19 17 14 11 10 9 8 9 9 6 5 4 5 5 3 2 1 1 0 0 0 0 0 0 0 0 0
30 31 35 40 43 42 39 36 35 38 42 43 39 30 23 20 18 15 12 10 8 7 6 7 7 6 4 3 4 4 3 3 3 2 1 0 0 0 0 0 0 0 0
35 35 38 42 44 44 45 44 42 41 41 40 37 30 25 22 19 15 13 11 8 6 6 6 6 5 4 3 3 3 3 3 3 3 1 0 0 0 0 0 0 0 0
40 41 44 46 47 47 48 49 46 41 38 36 34 30 26 24 21 17 14 11 9 7 6 6 6 4 3 3 3 3 3 3 3 3 2 1 0 0 0 0 0 0 0
46 47 48 50 49 49 49 48 44 39 35 33 30 28 25 22 19 16 13 11 8 7 6 6 6 4 3 3 3 2 3 3 3 3 2 1 0 0 0 0 0 0 0
49 48 48 48 48 47 44 42 39 34 30 28 26 24 22 19 16 14 12 10 7 6 6 6 5 4 3 3 2 1 2 3 3 3 3 1 0 0 0 0 0 0 0
47 45 43 43 44 42 40 37 34 29 25 23 22 21 19 16 14 13 11 8 7 6 6 6 4 3 3 3 1 1 2 3 3 3 3 2 1 0 0 0 0 0 0
43 40 39 39 39 39 37 34 30 25 22 20 19 18 17 15 14 13 10 8 6 6 6 5 4 3 3 2 1 1 2 3 3 3 3 2 1 0 0 0 0 0 0
39 37 37 38 38 37 36 33 28 23 20 17 16 15 15 15 14 12 9 7 6 6 6 4 3 3 3 2 1 0 1 1 2 2 2 2 1 0 0 0 0 0 0
35 34 35 36 36 36 35 31 26 22 18 15 14 14 14 15 13 11 9 7 6 6 5 4 3 3 3 2 1 0 0 0 1 1 1 1 0 0 0 0 0 0 0
31 31 33 34 33 34 33 28 24 21 17 14 14 15 16 14 12 9 6 5 5 4 4 3 3 3 3 2 1 0 0 0 0 0 0 0 0 0 0 0 0 0 0
28 30 32 32 32 31 29 26 24 21 17 14 14 17 17 14 12 8 4 2 2 2 2 3 3 3 3 2 1 0 0 0 0 0 0 0 0 0 0 0 0 0 0
Wind_Speed
9 9 10 10 9 8 7 7 6 5 4 2 2 1 1 0 0 1 1 2 1 1 1 0 0 1 1 1 1 1 1 1 1 0 1 2 1 1 1 2 2 2 3
8 9 9 9 9 9 8 8 7 6 5 3 2 2 2 1 1 0 0 1 1 1 1 1 0 0 1 1 1 1 1 1 1 2 1 1 3 2 1 1 2 2 2
12 11 10 10 9 9 9 9 8 6 5 4 2 1 1 1 1 1 0 1 1 1 1 1 1 1 1 1 2 2 2 2 1 2 3 2 2 1 2 1 1 1 1
11 11 11 11 11 10 9 8 8 7 5 5 4 3 2 2 2 1 1 1 1 1 1 1 1 1 1 1 2 1 2 2 1 1 1 2 3 2 1 2 1 0 1
13 13 13 12 11 10 9 8 7 6 5 5 5 4 3 2 1 1 1 0 1 1 1 0 1 1 1 1 1 1 1 1 2 1 1 1 1 2 2 1 1 2 1
13 12 10 9 8 8 8 8 7 6 5 5 5 5 4 3 2 1 1 0 1 2 1 0 0 1 1 1 1 1 0 1 1 1 1 2 2 2 2 2 1 0 1
11 10 10 10 9 9 9 8 8 6 5 5 5 4 4 4 3 2 2 1 0 1 1 1 0 1 1 1 1 1 1 0 1 1 1 1 2 2 2 3 1 1 0
10 11 12 11 10 10 10 9 8 7 6 6 5 4 4 3 2 2 2 1 1 0 1 1 1 1 1 1 1 1 1 1 1 1 1 0 0 1 2 3 3 2 1
11 11 11 10 10 10 9 10 9 7 6 6 5 4 3 3 3 2 2 1 0 1 1 2 2 2 2 2 1 2 1 1 2 2 2 1 1 1 1 2 3 4 2
9 10 9 9 9 8 8 8 8 7 6 6 5 4 3 3 3 3 2 2 1 2 2 2 2 2 2 2 2 2 2 3 2 2 3 3 2 2 1 1 1 2 3
10 10 9 9 8 7 8 8 7 6 6 5 4 4 3 3 3 3 2 2 2 2 2 2 2 3 3 3 3 3 3 4 3 3 3 3 3 2 2 2 2 2 3
9 9 9 9 8 8 8 7 7 7 6 6 5 5 4 4 4 3 2 3 3 2 2 3 3 3 4 3 3 4 4 4 4 4 4 4 3 4 3 2 3 3 3
8 8 8 9 9 8 8 8 7 7 6 6 6 5 4 4 4 3 3 3 3 3 3 3 4 3 3 3 4 4 4 4 4 4 4 4 4 4 3 4 3 3 4
9 9 8 8 8 8 8 7 7 7 7 6 6 5 5 4 4 3 3 3 3 3 3 3 3 3 3 3 4 4 4 4 4 4 4 4 4 3 3 4 4 4 5
10 11 10 8 8 8 8 8 7 7 7 7 6 5 5 5 4 3 3 3 3 4 3 3 3 3 3 3 4 4 5 4 4 4 4 5 7 7 4 4 3 4 4
11 10 10 9 9 10 9 8 8 7 7 7 6 6 5 5 4 4 4 4 4 4 4 4 4 4 3 5 7 6 4 4 4 4 4 5 6 7 8 8 7 6 5
11 10 10 9 9 9 10 9 8 7 7 7 7 6 6 6 5 5 5 4 4 4 4 4 4 4 4 7 8 8 5 5 4 4 4 4 5 6 5 6 8 7 7
10 10 9 9 7 7 8 8 8 8 7 6 6 6 6 6 5 5 5 4 4 4 3 3 4 4 4 6 8 9 6 5 4 4 4 4 4 4 5 5 6 5 4
10 10 10 9 9 9 9 9 8 7 7 6 5 5 6 6 6 6 5 4 4 4 3 3 3 4 3 5 7 7 4 4 4 4 4 4 4 5 7 6 6 5 4
8 9 9 9 10 9 9 9 8 7 7 6 6 5 6 6 6 6 5 4 4 4 4 4 3 3 3 4 6 6 4 4 3 3 4 5 5 6 6 5 5 4 2
8 9 10 9 8 9 10 9 7 6 6 5 5 6 5 5 6 5 5 5 5 5 4 4 2 3 3 4 6 6 4 4 3 2 2 2 5 6 6 5 3 3 3
8 8 8 7 7 8 9 9 7 5 5 6 6 6 5 5 5 5 5 5 6 5 4 3 2 1 1 3 4 6 6 5 4 2 1 1 4 6 6 4 5 6 5
8 7 8 8 6 6 8 9 7 7 7 6 6 6 5 4 5 6 6 5 5 4 4 3 3 1 1 1 4 5 6 5 3 2 2 3 4 4 4 5 6 5 3
7 7 8 8 7 6 6 7 7 8 8 7 6 6 6 5 4 4 4 4 4 5 4 4 3 2 1 1 1 2 2 3 3 2 2 4 4 4 3 3 3 2 2
6 7 7 8 7 6 6 6 7 8 8 7 6 6 5 5 4 3 2 3 3 5 6 5 5 5 4 4 5 5 3 3 2 3 2 3 2 2 2 2 2 1 2
6 7 7 7 6 6 6 5 6 8 8 7 6 5 5 4 4 4 3 6 3 2 4 5 6 4 5 7 6 6 6 6 6 4 3 2 1 1 1 1 0 1 1
Wind_Direction
181 171 170 169 162 159 160 160 155 166 160 148 154 160 191 208 168 172 175 178 185 185 159 184 174 177 174 218 215 214 237 250 197 129 323 327 319 252 221 199 175 199 213
175 175 173 170 169 171 170 165 163 172 174 171 172 167 165 173 169 173 194 211 209 200 173 174 202 224 205 251 247 212 204 249 183 161 142 333 346 351 282 212 178 200 216
180 180 179 180 173 176 176 175 174 175 179 171 144 120 77 48 43 35 294 278 228 222 221 203 194 227 210 237 254 219 196 223 253 184 163 168 221 290 332 320 214 178 164
181 182 184 183 182 186 180 174 175 176 176 163 154 155 155 168 192 200 223 286 258 238 244 212 209 221 224 248 261 230 202 184 226 259 215 192 173 170 277 336 350 26 135
184 185 187 185 185 180 175 174 170 172 170 163 165 160 160 168 162 148 114 341 324 309 292 277 266 259 247 250 275 292 207 184 197 210 221 229 206 178 173 247 331 13 37
186 186 183 172 171 170 169 168 167 172 169 163 161 161 160 154 140 128 124 354 323 314 331 7 296 284 290 272 267 288 257 214 211 213 200 189 188 195 178 195 215 27 10
179 176 171 169 170 168 170 168 166 169 166 162 163 166 164 156 155 157 154 149 307 329 327 339 316 304 307 321 343 21 355 277 240 234 232 212 216 186 166 165 180 146 17
178 177 176 173 171 170 170 166 166 167 165 166 168 165 158 153 157 157 155 167 191 250 337 26 25 10 5 6 20 31 8 39 33 22 10 1 259 167 170 166 154 135 52
174 173 171 170 170 168 170 167 163 162 163 164 158 155 154 151 149 146 138 136 122 91 53 54 44 22 20 19 40 40 24 40 45 30 26 37 29 62 147 161 163 155 153
163 164 164 168 170 169 162 153 156 161 160 160 163 155 151 148 140 125 116 101 81 67 68 58 51 41 34 35 49 46 31 51 42 50 49 37 24 40 51 104 134 146 151
162 161 164 163 157 149 146 147 150 148 149 151 144 137 133 131 123 116 112 105 83 77 77 72 66 55 43 40 49 51 47 54 43 39 53 42 37 47 42 60 78 91 115
156 155 155 149 146 146 146 148 148 147 150 146 136 134 126 120 118 114 104 94 85 75 77 75 68 63 55 46 55 60 53 57 51 41 48 39 49 50 44 65 79 88 100
142 140 140 145 150 151 151 151 150 149 143 137 134 131 127 125 125 119 105 95 90 79 72 73 71 66 60 56 59 68 67 67 62 55 54 42 55 55 50 63 74 82 92
146 147 148 152 155 153 153 151 148 145 142 137 136 138 138 134 127 119 109 101 95 85 77 77 73 73 69 67 70 74 70 66 63 63 60 52 56 60 67 74 77 90 92
154 156 155 157 156 152 151 147 145 146 146 141 141 145 137 127 121 115 110 98 94 92 85 74 62 61 70 72 85 84 80 73 66 57 57 61 62 62 71 89 95 99 101
161 158 156 158 158 155 153 150 149 148 143 145 148 146 137 132 129 125 115 100 88 82 77 71 69 62 62 78 86 94 82 74 76 70 54 57 49 51 61 77 87 102 121
159 156 158 160 160 157 153 152 150 144 142 145 149 148 144 142 143 137 121 114 105 94 85 78 75 66 58 77 88 92 90 80 76 73 61 56 48 50 61 67 68 68 83
157 156 156 156 155 148 142 139 135 138 142 144 148 152 150 148 141 131 128 121 114 108 100 86 79 73 59 75 89 93 85 79 69 70 74 74 50 55 74 77 68 59 52
162 158 158 153 145 142 141 134 133 136 139 144 149 152 152 149 146 143 140 137 125 113 106 101 91 84 59 75 97 101 92 80 64 58 62 75 67 60 78 84 79 63 42
147 148 145 139 138 141 138 133 139 143 153 156 154 151 150 150 152 152 145 138 129 126 118 100 94 95 81 85 106 110 107 94 76 55 45 55 71 68 77 92 98 90 66
137 142 140 140 144 142 137 139 144 158 160 148 141 139 142 145 147 142 137 134 130 125 118 111 96 92 95 97 108 115 119 124 109 88 52 33 65 68 71 82 98 117 112
127 130 132 132 135 140 140 143 155 161 146 137 134 137 139 141 137 136 134 136 137 134 132 122 103 67 73 100 115 118 121 127 120 123 126 85 74 68 66 70 81 87 85
132 133 135 132 134 143 148 151 162 155 145 137 137 139 135 130 137 142 144 143 146 147 149 145 143 135 54 89 119 121 125 122 117 134 128 95 77 66 60 63 73 77 80
138 138 140 141 149 155 157 160 157 152 146 146 144 142 139 135 133 137 146 152 159 158 157 160 167 167 154 158 134 125 125 112 98 90 87 73 66 66 57 48 59 70 99
148 143 148 150 154 153 155 158 154 149 147 149 148 145 143 144 135 121 124 157 170 176 171 178 174 169 180 207 176 155 155 154 147 117 74 59 55 51 38 38 40 53 78
141 141 147 148 150 152 156 159 159 154 151 153 154 154 151 146 140 130 89 49 73 124 164 171 167 172 174 165 164 163 156 149 138 113 98 104 121 142 149 131 59 41 77